www.pogodaiklimat.ru

Погода и климат >> Архив погоды >> Россия >> Дагестан >> Дербент


ПОГОДА в Дербенте

АРХИВ ПОГОДЫ в Дербенте

Время (UTC), дата Ветер
(напр.,м/с)
 
Видим.   Явления Облачность Т
(С)
Тd
(С)
f
(%)
Тe
(С)
Тes
(С)
Комфортность P
(гПа)
Po
(гПа)
Тmin
(С)
Tmax
(С)
R
(мм)
R24
(мм)
S
(см)
00 11.01 Ю 3 10 км ясно +2.4 -4.2 62 -1 -1 по сезону 1027.7 1030.0
03 11.01 Ю 3 10 км ясно +2.9 -2.8 66 -1 -1 по сезону 1026.1 1028.4 +0.1
06 11.01 СЗ 4 20 км 8/8 600 м
[Sc]
+1.0 -5.5 62 -4 -4 холодно 1027.1 1029.4 +0.1
09 11.01 СЗ 4 20 км 10/10 600 м
[Sc]
+2.7 -2.6 68 -2 -2 прохладно 1025.8 1028.1
12 11.01 СЗ 4 20 км 9/9 600 м
[Sc]
+3.1 -1.9 70 -1 -1 прохладно 1024.2 1026.5
15 11.01 СЗ 2 10 км 10/10 600 м
[Sc]
+3.3 -1.2 72 +1 +1 по сезону 1022.7 1024.9 +3.6
18 11.01 штиль 0 10 км 10/10 600 м
[Sc]
+2.4 -0.7 80 +1 +1 по сезону 1020.6 1022.8
21 11.01 штиль 0 10 км 10/10 600 м
[Sc]
+3.0 +0.6 84 +2 +2 по сезону 1018.4 1020.7
00 12.01 СЗ 1 10 км 10/10 600 м
[Sc]
+3.3 -0.2 78 +2 +2 по сезону 1017.3 1019.6
03 12.01 СЗ 2 10 км 10/10 600 м
[Sc]
+4.8 -0.2 70 +2 +2 по сезону 1017.4 1019.7 +1.5
06 12.01 СЗ 3 20 км 10/10 600 м
[Sc]
+4.7 +0.4 74 +1 +1 по сезону 1018.6 1020.8
09 12.01 С 4 20 км 8/3 600 м
[Sc Ac trans Ci fib]
+8.0 +2.4 68 +5 +6 по сезону 1017.4 1019.6
12 12.01 СЗ 4
{11}
20 км 10/10 600 м
[Sc]
+3.5 +1.3 85 -1 -1 прохладно 1018.3 1020.5
15 12.01 СЗ 4-12
{13}
10 км 10/10 600 м
[Sc]
+2.6 +0.2 84 -2 -2 прохладно 1020.0 1022.3 +8.3
18 12.01 СЗ 5
{12}
10 км 10/10 600 м
[Sc]
+1.6 -1.4 80 -4 -4 холодно 1022.0 1024.3
21 12.01 СЗ 5-10
{11}
4000 м слабый ливневой снег 10/10 300 м
[Cb cap]
-0.1 -1.5 90 -6 -6 холодно 1023.1 1025.4
00 13.01 СЗ 4
{11}
4000 м слабый ливневой снег 10/10 300 м
[Cb cap]
-0.6 -2.4 88 -6 -6 холодно 1025.0 1027.3
03 13.01 СЗ 4
{11}
10 км {ливн. осадки} 10/10 300 м
[Cb cap]
-0.9 -2.9 86 -7 -7 очень
холодно
1026.7 1029.0 -0.9 1
06 13.01 СЗ 4
{10}
20 км {ливн. осадки} 8/8 300 м
[Cb cap]
-0.8 -3.5 82 -6 -6 очень
холодно
1029.2 1031.6 -1.0
09 13.01 СЗ 4
{10}
20 км 10/10 600 м
[Sc]
-0.5 -4.0 77 -6 -6 очень
холодно
1029.7 1032.1
12 13.01 СЗ 4
{11}
20 км 10/10 600 м
[Sc]
-0.7 -4.3 77 -6 -6 очень
холодно
1030.4 1032.7
15 13.01 СЗ 5 10 км 10/10 600 м
[Sc]
-1.5 -5.1 76 -8 -8 очень
холодно
1032.3 1034.6 -0.4
18 13.01 СЗ 4 10 км 10/10 600 м
[Sc]
-2.1 -5.7 76 -8 -8 очень
холодно
1032.8 1035.1
21 13.01 СЗ 3 10 км 10/10 600 м
[Sc]
-0.8 -5.9 68 -5 -5 холодно 1032.2 1034.6
00 14.01 СЗ 3 10 км 10/10 600 м
[Sc]
-0.2 -5.9 65 -5 -5 холодно 1031.3 1033.6
03 14.01 СЗ 3 10 км 10/10 600 м
[Sc]
-0.4 -4.5 74 -5 -5 холодно 1030.7 1033.0 -2.2
06 14.01 СЗ 3 4000 м слабый ливневой снег 10/10 300 м
[Cb cap]
+0.9 -2.7 77 -3 -3 прохладно 1030.9 1033.2
09 14.01 СЗ 3 20 км {ливн. осадки} 10/10 300 м
[Cb cap]
+2.5 -1.4 75 -1 -1 прохладно 1029.2 1031.4
12 14.01 СЗ 2 20 км {ливн. осадки} 10/10 300 м
[Cb cap]
+2.4 -0.2 83 -1 -1 прохладно 1028.7 1031.0
15 14.01 З 1 4000 м слабый ливневой дождь 10/10 300 м
[Cb cap]
+1.4 0.0 90 -1 -1 прохладно 1029.4 1031.7 +2.8 0.6
18 14.01 З 1 4000 м слабый ливневой дождь 10/10 300 м
[Cb cap]
+1.6 +0.2 90 -0 -0 по сезону 1029.7 1032.0
21 14.01 С 1 10 км {ливн. осадки} 10/10 300 м
[Cb cap]
+1.0 -0.1 92 -1 -1 по сезону 1029.1 1031.5
00 15.01 ЮЗ 1 4000 м слабый ливневой снег 10/10 300 м
[Cb cap]
+1.1 0.0 92 -1 -1 по сезону 1029.3 1031.6
03 15.01 штиль 0 10 км {ливн. осадки} 10/10 300 м
[Sc]
+2.0 +0.5 90 +1 +1 по сезону 1030.2 1032.5 +0.7 4
06 15.01 штиль 0 20 км {ливн. осадки} 10/10 600 м
[Sc]
+2.2 +1.0 92 +1 +1 по сезону 1031.4 1033.7
09 15.01 Ю 1 20 км 10/10 600 м
[Sc]
+3.2 +0.6 83 +2 +2 по сезону 1030.9 1033.2
12 15.01 ЮЗ 1 20 км {ливн. осадки} 10/10 300 м
[Cb cap]
+2.5 +0.4 86 +1 +1 по сезону 1031.1 1033.4
15 15.01 ЮВ 4 10 км 10/10 300 м
[Cb cap]
+3.2 -0.6 76 -1 -1 прохладно 1031.8 1034.0 +3.4 0.8
18 15.01 В 3 10 км 10/10 600 м
[Sc]
+3.0 -1.8 71 -1 -1 по сезону 1032.3 1034.6
21 15.01 Ю 1 10 км 10/10 600 м
[Sc]
+2.8 -1.6 73 +1 +1 по сезону 1032.1 1034.4
00 16.01 Ю 1 10 км 10/10 600 м
[Sc]
+2.3 -1.7 75 +1 +1 по сезону 1031.8 1034.1
03 16.01 Ю 1 10 км 10/10 600 м
[Sc]
+2.6 -2.0 72 +1 +1 по сезону 1031.4 1033.7 +1.8
06 16.01 Ю 1 20 км 10/10 300 м
[Cb cap]
+2.7 -1.8 72 +1 +1 по сезону 1031.7 1034.0
09 16.01 ЮВ 4 20 км 10/10 300 м
[Cb cap]
+2.4 -3.0 67 -2 -2 прохладно 1030.1 1032.4
12 16.01 ЮВ 4 20 км 10/10 300 м
[Cb cap]
+2.3 -2.9 68 -2 -2 прохладно 1028.6 1030.9
15 16.01 ЮВ 1 4000 м слабая крупа {ливн. осадки} 10/10 300 м
[Cb cap]
+1.2 -1.6 82 -1 -1 прохладно 1027.9 1030.2 +2.7 0.4
18 16.01 В 3 10 км {ливн. осадки} 10/10 300 м
[Cb cap]
+1.3 -0.7 87 -3 -3 прохладно 1027.2 1029.5
21 16.01 Ю 2 10 км 10/10 300 м
[Cb cap]
+1.2 -2.2 78 -2 -2 прохладно 1025.1 1027.4
00 17.01 Ю 2 10 км 9/9 300 м
[Cb cap]
+1.3 -2.6 75 -2 -2 по сезону 1023.0 1025.2
03 17.01 Ю 3 10 км ясно +1.2 -2.2 78 -3 -3 прохладно 1021.0 1023.3 +1.0 1
06 17.01 ЮВ 4 20 км ясно +2.4 -2.7 69 -2 -1 прохладно 1019.9 1022.2 +0.7
09 17.01 ЮВ 3 20 км 8/0
[Ac trans]
+4.5 -0.7 69 +1 +3 по сезону 1017.8 1020.0
12 17.01 ЮВ 2 20 км 8/8 600 м
[Sc]
+3.9 +0.4 78 +1 +1 по сезону 1016.2 1018.4
15 17.01 штиль 0 10 км 8/8 600 м
[Sc]
+3.9 +0.2 77 +3 +3 по сезону 1015.8 1018.0 +5.0
18 17.01 СЗ 2 10 км 10/10 600 м
[Sc]
+4.0 +0.6 78 +1 +1 по сезону 1015.4 1017.6

 

Местоположение метеостанции Дербент (Дагестан, Россия): широта 42.07 долгота 48.30 высота над уровнем моря -17 м.

В архиве по умолчанию представлена погода в Дербенте за последнюю неделю. Архивные данные за месяц целиком и за предыдущие месяцы, начиная с января 2011 года, Вы можете получить, выбрав интересующий диапазон дат из раскрывающегося списка и нажав кнопку "Ввод!".

Внимание! Время в таблицах - всемирное. Для получения местного времени необходимо прибавить поправку, которая в Дербенте равна 3 ч.

Смотрите также архив погоды в соседних городах и на ближайших метеорологических станциях:

Погода в Касумкенте (Дагестан, Россия) (46 км)
Погода в Изберге (Дагестан, Россия) (60 км)
Погода в Сергокале (Дагестан, Россия) (67 км)
Погода в Губе (Азербайджан) (80 км)
Погода в Ахты (Дагестан, Россия) (81 км)
Погода в Кумухе (Дагестан, Россия) (98 км)
Погода в Куппе (Дагестан, Россия) (107 км)
Погода в Гунибе (Дагестан, Россия) (116 км)
Погода в Махачкале (Дагестан, Россия) (125 км)
Погода в Габале (Азербайджан) (126 км)

Пояснения к столбцам:

Ветер - указаны скорость ветра в м/с - средняя за 10 мин, порывы в срок и между сроками (в фигурных скобках) и направление, откуда дует ветер: С - северный, СВ - северо-восточный, В - восточный, ЮВ - юго-восточный, Ю - южный, ЮЗ - юго-западный, З - западный, СЗ - северо-западный.
Видимость - горизонтальная дальность видимости в метрах или километрах. При видимости от 1 до 10 км при отсутствии осадков обычно наблюдается дымка, при ухудшении видимости до 1 км и менее - туман. В сухую погоду видимость может ухудшаться дымом, пылью или мглою.
Явления - указаны атмосферные явления, наблюдавшиеся в срок или в последний час перед сроком; фигурными скобками обозначены явления, наблюдавшиеся между сроками (за 1-3 часа до срока); квадратными скобками обозначены град или гололедные отложения с указанием их диаметра в мм.
Облачность - указаны через наклонную черту общая и нижняя облачность в баллах и высота нижней границы облаков в метрах; квадратными скобками обозначены формы облаков: Ci - перистые, Cs - перисто-слоистые, Cc - перисто-кучевые, Ac - высококучевые, As - высокослоистые, Sc - слоисто-кучевые, Ns - слоисто-дождевые, Cu - кучевые, Cb - кучево-дождевые. Подробнее классификацию облаков см. в Атласе облаков (PDF).
T - Температура воздуха - температура, измеренная на высоте 2 м над землей.
Td - Температура точки росы - температура, при понижении до которой содержащийся в воздухе водяной пар достигнет насыщения.
f - Относительная влажность воздуха - влажноcть воздуха, измеренная на высоте 2 м над землей.
Te - Эффективная температура - температура, которую ощущает одетый по сезону человек в тени. Характеристика душности погоды. При расчете учитывается влияние влажности воздуха и скорости ветра на теплоощущения человека.
Tes - Эффективная температура на солнце - температура, которую ощущает человек, с поправкой на солнечный нагрев. Характеристика знойности погоды. Зависит от высоты солнца над горизонтом, облачности и скорости ветра. Ночью, в пасмурную погоду, а также при ветре 12 м/с и более поправка равна нулю.
P - Атмосферное давление - приведенное к уровню моря атмосферное давление.
Po - Атмосферное давление - измеренное на уровне метеостанции атмосферное давление.
Tmin - Минимальная температура - минимум температуры воздуха на высоте 2 м над землей.
Tmax - Максимальная температура - максимум температуры воздуха на высоте 2 м над землей.
R - Количество осадков - Количество выпавших осадков за период времени, мм. При наведении курсора мыши на число - период времени, за который выпало указанное количество осадков.
R24 - Количество осадков - Количество выпавших осадков за 24 часа, мм.
S - Снежный покров - Высота снежного покрова, см. При наведении курсора мыши на число - состояние снежного покрова и степень покрытия местности в баллах.